Location: Ariel
(45.9570°N, 122.5700°W)
Time: 20:27:18
(UTC-07:00)

First-Move - Visible Passes

Search period start: 22 October 2020 00:00
Search period end: 01 November 2020 00:00
Orbit: 577 x 667 km, 97.6° (Epoch: 22 October)

Date Brightness Start Highest point End Pass type
(mag) Time Alt. Az. Time Alt. Az. Time Alt. Az.
22 Oct ? 06:48:22 10° NNE 06:52:47 84° WNW 06:57:03 10° SSW visible
23 Oct ? 05:31:30 10° NE 05:34:07 15° E 05:36:41 10° SE visible
23 Oct ? 07:06:24 10° N 07:10:41 55° WNW 07:14:51 10° SSW visible
24 Oct ? 05:48:45 10° NE 05:52:15 23° E 05:55:38 10° SE visible
25 Oct ? 06:06:20 10° NNE 06:10:19 35° E 06:14:11 10° SSE visible
25 Oct ? 18:39:49 10° SSW 18:43:36 25° W 18:47:23 10° NW visible
26 Oct ? 06:24:05 10° NNE 06:28:20 54° E 06:32:27 10° S visible
26 Oct ? 18:58:43 10° SW 19:01:43 17° W 19:04:42 10° NW visible
27 Oct ? 06:41:57 10° NNE 06:46:18 84° ESE 06:50:30 10° SSW visible
27 Oct ? 19:18:31 10° WSW 19:19:53 11° W 19:21:13 10° WNW visible
28 Oct ? 05:25:30 10° ENE 05:27:34 13° E 05:29:36 10° ESE visible
28 Oct ? 06:59:57 10° N 07:04:13 62° WNW 07:08:21 10° SSW visible
29 Oct ? 05:42:31 10° NE 05:45:42 20° E 05:48:48 10° SE visible
30 Oct ? 06:00:00 10° NNE 06:03:46 30° E 06:07:27 10° SSE visible
30 Oct ? 18:33:11 10° SSW 18:37:07 28° W 18:41:01 10° NW visible
31 Oct ? 06:17:41 10° NNE 06:21:48 46° E 06:25:48 10° S visible
31 Oct ? 18:51:57 10° SW 18:55:12 19° W 18:58:26 10° NW visible
